Dallas/Ft Worth, TX

1:54 AM CST on November 21, 2019 (GMT -0600)
Dallas-Fort Worth International

Weather History for KDFW - September, 2019

Change the Weather History Date:

Friday, September 13, 2019

  Actual Average Record
Temperature  
Mean Temperature 86 °F 79 °F  
Max Temperature 95 °F 89 °F 107 °F (2011)
Min Temperature 77 °F 69 °F 48 °F (1902)
Degree Days  
Heating Degree Days 0 0  
Month to date heating degree days 0 0  
Since 1 July heating degree days 0 0  
Cooling Degree Days 21 14  
Month to date cooling degree days 275 208  
Year to date cooling degree days 2477 2390  
Growing Degree Days 36 (Base 50)    
Moisture  
Dew Point 65 °F    
Average Humidity 53    
Maximum Humidity 74    
Minimum Humidity 30    
Precipitation  
Precipitation 0.00 in 0.09 in 1.60 in (1949)
Month to date precipitation 0.00 1.22  
Year to date precipitation 27.13 25.33  
Sea Level Pressure  
Sea Level Pressure 30.08 in    
Wind  
Wind Speed 7 mph ()    
Max Wind Speed 14 mph    
Max Gust Speed 17 mph    
Visibility 10.0 miles    
Events      
T = Trace of Precipitation, MM = Missing Value Source: Averaged Metar Reports

Daily Weather History Graph

Daily Weather History Graph

Search for Another Location

Airport or City:

Astronomy

Sep. 13, 2019 Rise Set
Actual Time 7:10 AM CDT 7:37 PM CDT
Civil Twilight 6:45 AM CDT 8:02 PM CDT
Nautical Twilight 6:16 AM CDT 8:31 PM CDT
Astronomical Twilight 5:46 AM CDT 9:00 PM CDT
Moon 7:47 PM CDT (9/13) 6:33 AM CDT (9/13)
Length of Visible Light 13h 16m
Length of Day
12h 26m
Full, 100% of the Moon is Illuminated
Sep 13
Full
Sep 13
Full
Sep 21
Last Quarter
Sep 28
New
Oct 5
First Quarter

Hourly Weather History & Observations

Time (CDT) Temp. Heat Index Dew Point Humidity Pressure Visibility Wind Dir Wind Speed Gust Speed Precip Events Conditions
12:53 AM 84.0 °F 87.0 °F 68.0 °F 58% 30.03 in 10.0 mi SSE 11.5 mph - N/A   Scattered Clouds
1:53 AM 82.0 °F 84.9 °F 68.0 °F 62% 30.04 in 10.0 mi South 10.4 mph - N/A   Partly Cloudy
2:53 AM 81.0 °F 83.8 °F 68.0 °F 65% 30.05 in 10.0 mi South 6.9 mph - N/A   Scattered Clouds
3:53 AM 80.1 °F 82.7 °F 68.0 °F 67% 30.06 in 10.0 mi South 8.1 mph - N/A   Scattered Clouds
4:53 AM 80.1 °F 82.9 °F 69.1 °F 69% 30.06 in 10.0 mi South 8.1 mph - N/A   Mostly Cloudy
5:53 AM 79.0 °F - 69.1 °F 72% 30.07 in 10.0 mi South 10.4 mph - N/A   Mostly Cloudy
6:53 AM 79.0 °F - 70.0 °F 74% 30.09 in 10.0 mi SW 6.9 mph - N/A   Mostly Cloudy
7:53 AM 81.0 °F 84.4 °F 70.0 °F 69% 30.12 in 10.0 mi West 6.9 mph - N/A   Mostly Cloudy
8:53 AM 82.0 °F 85.9 °F 70.0 °F 67% 30.13 in 10.0 mi West 4.6 mph - N/A   Mostly Cloudy
9:53 AM 84.0 °F 88.4 °F 70.0 °F 63% 30.15 in 10.0 mi West 8.1 mph - N/A   Mostly Cloudy
10:53 AM 86.0 °F 90.7 °F 70.0 °F 59% 30.16 in 10.0 mi Calm Calm - N/A   Mostly Cloudy
11:53 AM 88.0 °F 88.7 °F 63.0 °F 43% 30.14 in 10.0 mi West 8.1 mph - N/A   Mostly Cloudy
12:53 PM 91.9 °F 93.3 °F 64.0 °F 39% 30.13 in 10.0 mi SW 5.8 mph - N/A   Mostly Cloudy
1:53 PM 93.0 °F 94.2 °F 63.0 °F 37% 30.10 in 10.0 mi ESE 6.9 mph - N/A   Mostly Cloudy
2:53 PM 93.0 °F 92.3 °F 59.0 °F 32% 30.07 in 10.0 mi SE 4.6 mph - N/A   Mostly Cloudy
3:53 PM 95.0 °F 94.4 °F 59.0 °F 30% 30.05 in 10.0 mi Variable 3.5 mph - N/A   Mostly Cloudy
4:53 PM 93.0 °F 92.7 °F 60.1 °F 33% 30.04 in 10.0 mi NE 4.6 mph - N/A   Mostly Cloudy
5:53 PM 93.0 °F 94.2 °F 63.0 °F 37% 30.04 in 10.0 mi North 6.9 mph - N/A   Mostly Cloudy
6:53 PM 91.0 °F 91.9 °F 63.0 °F 39% 30.04 in 10.0 mi NNE 11.5 mph - N/A   Mostly Cloudy
7:53 PM 87.1 °F 87.5 °F 62.1 °F 43% 30.04 in 10.0 mi NE 6.9 mph - N/A   Mostly Cloudy
8:53 PM 84.0 °F 84.4 °F 61.0 °F 46% 30.06 in 10.0 mi ENE 6.9 mph - N/A   Mostly Cloudy
9:53 PM 82.9 °F 83.3 °F 61.0 °F 47% 30.08 in 10.0 mi ENE 4.6 mph - N/A   Clear
10:53 PM 82.9 °F 83.7 °F 62.1 °F 49% 30.08 in 10.0 mi East 4.6 mph - N/A   Scattered Clouds
11:53 PM 79.0 °F - 64.9 °F 62% 30.09 in 10.0 mi NE 5.8 mph - N/A   Scattered Clouds